Tracking 29090 objects as of 15-Jul-2024
HD Live streaming from Space Station
objects crossing your sky now

NSS 703 (INTELSAT 703)

Track NSS 703 (INTELSAT 703) now!
NSS 703 (INTELSAT 703) is classified as:


NORAD ID: 23305
Int'l Code: 1994-064A
Perigee: 36,053.0 km
Apogee: 36,080.3 km
Inclination: 10.5 °
Period: 1,450.1 minutes
Semi major axis: 42437 km
RCS: 0.003 m2 (small)
Launch date: October 6, 1994
Source: SOCIETE EUROPEENNE DES SATELLITES (SES)
Launch site: AIR FORCE EASTERN TEST RANGE (AFETR)

Africa, Japan, India, China, Australia; 26 C-band, 10 Ku-band; shared capacity with Intelset.
Your satellite tracking list
Your tracking list is empty




NASA's NSSDC Master Catalog

Two Line Element Set (TLE):
1 23305U 94064A   24196.94574814 -.00000290  00000-0  00000+0 0  9991
2 23305  10.4522  42.1588 0003220 235.9346 123.9448  0.99306133108752
Source of the keplerian elements: AFSPC